STARLINK-33612, 63325

Orbit data source: Space-Track

STARLINK-33612, 63325 is a payload satellite owned by SpaceX/Seattle (US) in LEO that was launched on Tue, 18 Mar 2025 UTC via an FALCON 9 launch vehicle from the Air Force Eastern Test Range (AFETR). Payload-class satellites include a variety of spacecraft equipped with specific instruments for various scientific and technological missions. These include communications satellites like Starlink; space stations such as the ISS; scientific satellites like the Hubble; Earth observation satellites from companies like Planet Labs, Umbra, and HawkEye 360; GPS; miniature CubeSats for education and research; and military/defense satellites.

Loading next visibility...
Identifier
63325, 2025-057U
Orbit
LEO
Country
Flag of USUS
Related business
Manufacturer
SpaceX/Seattle
Mission
Operational Commercial Communications
Bus & Motor
STARLINK V2MO, Unknown motor
Mass
575 kg wet, ~530 kg dry
Launch date (UTC)
2025-03-18 (1 year ago)
Launch vehicle
FALCON 9
Launch site
Air Force Eastern Test Range (AFETR)
Object type
Payload
Rocket body
Debris
Shape & HBR
Box + 1 Pan, 17.7 m
Radar Cross Section
41.120 m², Large (>1 m²)

Expand to show TLE details & history
Last TLE update: 11 hours ago

TLE from 11 hours ago
0 STARLINK-33612
1 63325U 25057U   26257.45726191  .00014283  00000-0  52746-3 0  9990
2 63325  43.0037  45.0756 0001561 272.5910  87.4763 15.27586286 84641
Epoch: 2026-09-14T10:58Z
TLE epoch observation values (Epoch: 2026-09-14T10:58:27.429Z)
Latitude
Longitude
-112.97597°
Altitude
482.759 km
Speed
7.626 km/s
True Right ascension
03h 00m 18s
True Declination
0° 00' 00"
Sunlit
Object was in full shadow at epoch
Visualization orbit readout
Latitude
Unknown
Longitude
Unknown
Altitude
Unknown
Speed
Unknown
Apparent Right ascension
Unknown
Apparent Declination
Unknown
Sunlit
N/A
Visualization observer readout
Local Sidereal Time
14:21:03
Azimuth
Unknown
Elevation
Unknown
Doppler factor
Unknown
Orbital elements
Apogee altitude
486.046 km
Perigee altitude
483.903 km
Semi-major axis
6,863.112 km
Eccentricity
0.00016
Inclination
43.0037°
RAAN
45.0756°
Arg. of periapsis
272.591°
True anomaly
87.49417°
Mean anomaly
87.4763°
Eccentric anomaly
87.48524°
Mean motion
3.81735 °/min
Orbital period
94.31 mins
BSTAR
0.00052746
Loading maneuver chart data...
Computing Atmospheric mass density...
Loading historical data...
Loading historical data...
Loading historical data...
Loading historical data...
Loading historical data...
Loading historical data...
Loading historical data...

Documentation

Showing up to 5 results
|